Content
SEND FEEDBACK

Daily
Averages
Monthly
Summary
United States of America

NEW YORK - CENTRAL PARK, NEW YORK


Home > North America > United States > New York
Elevation: 14 feet     Latitude: 40 47N     Longitude: 073 58W

WEATHER
 
SELECT A DAY
Number of Records: 152,993;   Date Range: 11/1/95 - 12/18/14
 
SHARE

PRINT THIS DATA

[ ← Previous Day ]
WEATHER ALMANAC - FEBRUARY 8, 2014
[ Next Day → ]
[ °C ]   °F
Weather ElementAverageHighLow
Temperature25.2 °F28.9 °F (3:51 pm)21 °F (7:51 am)
Dewpoint3.8 °F10 °F (7:51 pm)-2 °F (9:51 am)
Humidity40.3 %49 % (7:51 pm)33 % (1:51 pm)
Barometer30.25 in30.34 in (8:51 am)30.15 in (10:51 pm)
Wind Speed4.9 mph9.2 mph (3:51 am)
Weather ElementAverage
Visibility10 mi
Wind DirectionSE (136.1 °)

Weather ElementTotal
Precipitation---
Heating Degree Days40.1 (Base 65)
Averaged from 23 records on February 8, 2014
WEATHER CONDITIONS BREAKOUT
WIND DIRECTION BREAKOUT
WEATHER BY HOUR - FEBRUARY 8, 2014
[ °C ]   °F
Local TimeTemperatureDewpointHumidityBarometerVisibilityWind DirectionWind SpeedGust SpeedPrecipitationEventsConditions
1:51 AM26.1 °F3.9 °F39 %30.30 in10.0 miNorthClear
2:51 AM25.0 °F3.0 °F39 %30.32 in10.0 miVariable4.6 mphClear
3:51 AM23.0 °F3.0 °F42 %30.31 in10.0 miWest (280°)9.2 mphClear
4:51 AM23.0 °F1.0 °F39 %30.32 in10.0 miWest (280°)6.9 mphClear
5:51 AM21.9 °F1.9 °F42 %30.32 in10.0 miWest (280°)6.9 mphClear
6:51 AM21.9 °F1.0 °F40 %30.33 in10.0 miWest (280°)8.1 mphClear
7:51 AM21.0 °F0.0 °F40 %30.32 in10.0 miNW (320°)8.1 mphClear
8:51 AM21.0 °F-0.9 °F38 %30.34 in10.0 miVariable4.6 mphClear
9:51 AM21.9 °F-2.0 °F35 %30.33 in10.0 miVariable4.6 mphClear
10:51 AM24.1 °F0.0 °F35 %30.31 in10.0 miCalmClear
11:51 AM25.0 °F0.0 °F34 %30.28 in10.0 miCalmClear
12:51 PM26.1 °F1.9 °F35 %30.25 in10.0 miCalmOvercast
1:51 PM28.0 °F1.9 °F33 %30.22 in10.0 miWest (270°)5.8 mphPartly Cloudy
2:51 PM28.0 °F3.9 °F36 %30.24 in10.0 miVariable3.5 mphOvercast
3:51 PM28.9 °F5.0 °F36 %30.24 in10.0 miVariable3.5 mphOvercast
4:51 PM28.0 °F8.1 °F43 %30.21 in10.0 miCalmMostly Cloudy
5:51 PM28.0 °F7.0 °F41 %30.19 in10.0 miCalmOvercast
6:51 PM27.0 °F8.1 °F45 %30.18 in10.0 miWNW (290°)6.9 mphClear
7:51 PM27.0 °F10.0 °F49 %30.17 in10.0 miWest (260°)6.9 mphOvercast
8:51 PM27.0 °F8.1 °F45 %30.16 in10.0 miWNW (290°)9.2 mphPartly Cloudy
9:51 PM26.1 °F8.1 °F47 %30.16 in10.0 miWest (280°)6.9 mphPartly Cloudy
10:51 PM26.1 °F8.1 °F47 %30.15 in10.0 miNorthClear
11:51 PM25.0 °F7.0 °F46 %30.15 in10.0 miWNW (300°)6.9 mphPartly Cloudy
Hourly data recorded from KNYC, located miles away from New York - Central Park, New York







STORIES FROM OUR PARTNERS